Regional Weather Roundup
Issued by NWS State College, PA

Home | Current Version | Previous Version | Text Only | Print | Product List | Glossary Off
Versions: 1 2 3 4 5 6 7 8 9 10 11 12 13 14 15 16 17 18 19 20 21 22 23 24 25 26 27 28 29 30 31 32 33 34 35 36 37 38 39 40 41 42 43 44 45 46 47 48 49 50

000
ASUS41 KCTP 231010
RWRCTP

REGIONAL WEATHER ROUNDUP
NATIONAL WEATHER SERVICE STATE COLLEGE PA
600 AM EDT SAT JUL 23 2016

Note: "fair" indicates few or no clouds below 12,000 feet with no
significant weather and/or obstructions to visibility.

* = STATION THAT DOES NOT REPORT PRECIPITATION /E.G. RAIN...SNOW...ETC/
    THUNDER OR FOG.

PAZ002>004-007>009-013>016-020>023-029>032-231100-
WESTERN PENNSYLVANIA

CITY           SKY/WX    TMP DP  RH WIND       PRES   REMARKS
ERIE           CLEAR     72  69  90 SW5       29.96R
MEADVILLE      CLEAR     69  67  93 SW5       30.00S
FRANKLIN*      CLEAR     70  66  88 W8        30.03S
NEW CASTLE     FAIR      70  69  97 SW3       30.01R
BEAVER COUNTY  NOT AVBL
BUTLER*        CLEAR     70  66  88 SW3       30.04S
PITTSBURGH INT MOCLDY    72  67  84 CALM      30.01S
PITTSBURGH     CLEAR     70  65  84 SE3       30.02R
INDIANA*       CLOUDY    72  72 100 SW8       30.06R
LATROBE        MOCLDY    72  72 100 SW9       30.03S
WASHINGTON CO* PTCLDY    68  64  88 S3        30.04R
$$

PAZ004>006-010>012-017>019-024>028-033>037-041-042-045-046-049>053-231100-
CENTRAL PENNSYLVANIA

CITY           SKY/WX    TMP DP  RH WIND       PRES   REMARKS
BRADFORD       FOG       62  61  96 CALM      30.02R VSB 1/4
DUBOIS         PTCLDY    69  67  93 SW6       30.01R FOG
CLEARFIELD     PTCLDY    71  67  87 S5        30.01R
JOHNSTOWN      CLOUDY    71  66  84 W9        30.06R
ALTOONA        CLEAR     72  66  81 W6        30.01R
STATE COLLEGE  CLEAR     72  68  88 SW6       29.98R
WILLIAMSPORT   CLEAR     71  64  78 CALM      29.92R
SELINSGROVE    PTCLDY    68  68 100 CALM      29.93R FOG
FT INDIANTOWN  CLEAR     74  69  85 SW7       29.91R
CAPITAL CITY   CLEAR     77  68  73 W9        29.91R
HARRISBURG     PTCLDY    75  72  90 NE3       29.91R
YORK           CLEAR     75  69  81 CALM      29.93S
$$

PAZ038>040-043-044-047-048-054-055-060>062-067>071-231100-
EASTERN PENNSYLVANIA

CITY           SKY/WX    TMP DP  RH WIND       PRES   REMARKS
SCRANTON       CLEAR     68  63  84 CALM      29.92R
MOUNT POCONO   CLEAR     69  32  25 NW7       29.96R
ALLENTOWN      PTCLDY    71  66  84 CALM      29.90R
QUAKERTOWN*    MOSUNNY   72  68  88 CALM      29.91S
READING        PTCLDY    75  68  78 CALM      29.90R
LANCASTER      CLEAR     72  67  84 W3        29.92R
COATESVILLE    SUNNY     73  68  83 W3        29.94S
POTTSTOWN      CLEAR     73  68  84 CALM      29.92R
BLUE BELL      CLEAR     70  68  94 CALM      29.89S
DOYLESTOWN     PTCLDY    74  67  78 CALM      29.89R
WILLOW GROVE   NOT AVBL
NORTH PHILA    CLEAR     77  69  76 W6        29.90R
PHILADELPHIA   PTCLDY    77  68  73 W8        29.90R
$$




USA.gov is the U.S. government's official web portal to all federal, state and local government web resources and services.